Regional Weather Roundup
Issued by NWS

Home | Current Version | Previous Version | Text Only | Print | Product List | Glossary Off
Versions: 1 2 3 4 5 6 7 8 9 10 11 12 13 14 15 16 17 18 19 20 21 22 23 24 25 26 27 28 29 30 31 32 33 34 35 36 37 38 39 40 41 42 43 44 45 46 47 48 49 50

000
ASUS43 KIND 241359
RWRIN

WEATHER ROUNDUP FOR INDIANA
NATIONAL WEATHER SERVICE INDIANAPOLIS IN
1000 AM EDT SUN MAY 24 2015

NOTE: "FAIR" INDICATES FEW OR NO CLOUDS BELOW 12,000 FEET WITH NO
SIGNIFICANT WEATHER AND/OR OBSTRUCTIONS TO VISIBILITY.

* - STATION DOES NOT REPORT WEATHER SUCH AS PRECIPITATION OR FOG.

+ - STATION NOT QUALITY CONTROLLED BY THE NATIONAL WEATHER SERVICE.
    USE DATA WITH CAUTION...ESPECIALLY DEWPOINT AND RELATIVE
    HUMIDITY OBSERVATIONS.

INZ001>003-010>013-019-020-241500-
NORTHWEST INDIANA

CITY           SKY/WX    TMP DP  RH WIND       PRES   REMARKS
GARY /AIRPORT/ CLOUDY    66  52  59 SE7       30.20S
RENSSELAER +   CLOUDY    64  55  72 E7        30.19F

$$

LMZ046-743>745-241500-
SOUTHERN LAKE MICHIGAN

STATION/POSITION TIME  TEMP    WIND        PRES    WAVE
                       AIR SEA DIR/SP/G            HT
                 (UTC) (F)     (DEG/KT/KT) (MB)    (FT)
BURNS HARBOR     1300   68     170/  8/ 11 1023.0R
MICHIGAN CITY    1300   66     120/  9/ 12   N/A
5NW MICH CITY    1300   60 54  170/  6/  6   N/A     1

$$

INZ004-005-014>016-021>024-241500-
NORTH CENTRAL INDIANA

CITY           SKY/WX    TMP DP  RH WIND       PRES   REMARKS
GOSHEN         PTSUNNY   72  53  51 S12       30.22F
SOUTH BEND     PTSUNNY   69  50  50 S8        30.22S

$$

INZ006>009-017-018-025>027-241500-
NORTHEAST INDIANA

CITY           SKY/WX    TMP DP  RH WIND       PRES   REMARKS
ANGOLA *+      SUNNY     70  54  56 S7        30.25S
FORT WAYNE     PTSUNNY   69  51  52 S13       30.26S

$$

INZ028-029-035-036-043>045-051>053-241500-
WEST CENTRAL INDIANA

CITY           SKY/WX    TMP DP  RH WIND       PRES   REMARKS
CRAWFORDSVL +  CLOUDY    70  48  45 S12       30.21S
GREENCASTLE +  PTSUNNY   70  52  52 S10       30.22F
LAFAYETTE      CLOUDY    68  55  63 SE3       30.19F
TERRE HAUTE    PTSUNNY   71  56  58 S12       30.19F

$$

INZ030>032-037>040-046>048-054>057-064-065-241500-
CENTRAL INDIANA

CITY           SKY/WX    TMP DP  RH WIND       PRES   REMARKS
INDIANAPOLIS   PTSUNNY   69  53  56 S9        30.22S
-EAGLE CREEK   PTSUNNY   70  53  54 S7        30.23S
KOKOMO *+      CLOUDY    66  54  63 S13       30.24S
MT COMFORT *+  PTSUNNY   68  43  40 S9        30.25F
SHELBYVILLE    PTSUNNY   73  53  49 S14       30.24F

$$

INZ033-034-041-042-049-050-058-059-241500-
EAST CENTRAL INDIANA

CITY           SKY/WX    TMP DP  RH WIND       PRES   REMARKS
MUNCIE         CLOUDY    70  52  52 S10       30.26R

$$

INZ060-061-067>069-081>083-085>088-241500-
SOUTHWEST INDIANA

CITY           SKY/WX    TMP DP  RH WIND       PRES   REMARKS
EVANSVILLE     SUNNY     73  55  53 S12       30.20F
HUNTINGBURG *+ SUNNY     73  54  49 S16       30.23F

$$

INZ062-063-066-070>080-084-089>092-241500-
SOUTH CENTRAL AND SOUTHEAST INDIANA

CITY           SKY/WX    TMP DP  RH WIND       PRES   REMARKS
BLOOMINGTON    MOSUNNY   72  55  55 S9        30.23F
MADISON *+     PTSUNNY   70  50  49 S8        30.30R
SEYMOUR +      MOSUNNY   70  54  56 S6        30.26R

$$




USA.gov is the U.S. government's official web portal to all federal, state and local government web resources and services.